DW8903 Weather Reports


Display with metric or nautical units.
time (UTC)temp
F
wind
direction
speed
MPH
gust
MPH
rain 1hr
in
rain 24hr
in
rain mn
in
humidity
%
barometer
mb
20260906060012 45 317 0.0 1.0 0.00 0.01 0.01 93 1006.7
20260906054550 44 319 0.0 1.0 0.00 0.01 0.01 92 1006.7
20260906053102 44 319 0.0 1.0 0.00 0.01 0.01 92 1006.6
20260906051548 43 316 0.0 1.0 0.00 0.01 0.01 92 1006.4
20260906050052 42 315 0.0 1.0 0.00 0.01 0.01 91 1006.3
20260906044545 42 320 0.0 1.0 0.00 0.01 0.01 90 1006.2
20260906043046 42 317 0.0 1.0 0.00 0.01 0.01 89 1006.1
20260906041540 42 317 1.0 4.0 0.00 0.01 0.01 88 1006.0
20260906040040 42 321 0.0 4.0 0.00 0.01 0.01 88 1005.9
20260906034535 43 314 0.0 2.0 0.00 0.01 0.01 88 1005.7
20260906033034 44 319 0.0 3.0 0.00 0.01 0.01 88 1005.6
20260906031532 44 323 2.0 5.0 0.00 0.01 0.01 89 1005.3
20260906030027 44 316 2.0 6.0 0.00 0.01 0.01 89 1005.1
20260906024527 45 333 1.0 8.0 0.00 0.01 0.01 89 1005.0
20260906023027 45 315 3.0 8.0 0.00 0.01 0.01 89 1004.7
20260906021522 45 315 3.0 10.0 0.00 0.01 0.01 90 1004.6
20260906020023 45 300 3.0 9.0 0.00 0.01 0.01 91 1004.5
20260906014526 45 321 3.0 8.0 0.00 0.01 0.01 91 1004.4
20260906013029 45 321 3.0 8.0 0.00 0.01 0.01 91 1004.2
20260906011517 45 322 4.0 11.0 0.00 0.01 0.01 91 1004.0
20260906010015 45 318 4.0 11.0 0.00 0.01 0.01 91 1003.9
20260906004512 45 317 2.0 6.0 0.00 0.01 0.01 91 1003.7
20260906003010 45 313 1.0 4.0 0.00 0.01 0.01 91 1003.5
20260906001516 45 320 1.0 4.0 0.00 0.01 0.01 91 1003.3
20260906000019 44 297 0.0 2.0 0.00 0.01 0.01 91 1003.2
20260905234507 44 319 2.0 8.0 0.00 0.01 0.01 90 1003.0
20260905233004 45 321 0.0 5.0 0.00 0.01 0.01 91 1003.0
20260905231502 44 325 0.0 2.0 0.00 0.01 0.01 90 1002.8
20260905230001 44 319 0.0 2.0 0.00 0.01 0.01 90 1002.8
20260905224558 45 321 0.0 2.0 0.00 0.01 0.01 89 1002.5
20260905223056 45 318 0.0 4.0 0.00 0.01 0.01 89 1002.4
20260905221555 45 321 0.0 2.0 0.01 0.01 0.01 88 1002.2
20260905220052 46 321 0.0 4.0 0.01 0.01 0.01 88 1002.2
20260905214550 46 325 0.0 1.0 0.01 0.01 0.01 88 1002.0
20260905213048 47 332 0.0 1.0 0.01 0.01 0.01 89 1001.8
20260905211551 47 333 0.0 5.0 0.00 0.00 0.00 89 1001.7
20260905210047 47 321 0.0 1.0 0.00 0.00 0.00 89 1001.4
20260905204545 48 325 0.0 2.0 0.00 0.00 0.00 88 1001.3
20260905203042 48 329 0.0 1.0 0.00 0.00 0.00 88 1001.1
20260905201539 48 317 0.0 4.0 0.00 0.00 0.00 88 1000.9
20260905200041 49 317 1.0 8.0 0.00 0.00 0.00 88 1000.7
20260905194536 49 341 2.0 3.0 0.00 0.00 0.00 89 1000.5
20260905193035 50 326 0.0 3.0 0.00 0.00 0.00 89 1000.3
20260905191532 50 5 0.0 2.0 0.00 0.00 0.00 89 1000.2
20260905190032 50 29 0.0 3.0 0.00 0.00 0.00 88 1000.1
20260905184545 51 325 1.0 3.0 0.00 0.00 0.00 87 999.9
20260905183040 51 317 0.0 2.0 0.00 0.00 0.00 86 999.8
20260905181529 51 317 0.0 1.0 0.00 0.00 0.00 85 999.7
20260905180033 52 317 0.0 2.0 0.00 0.00 0.00 85 999.6
20260905174526 53 317 0.0 1.0 0.00 0.00 0.00 83 999.5
20260905173023 53 317 0.0 0.0 0.00 0.00 0.00 83 999.3
20260905171522 54 316 0.0 1.0 0.00 0.00 0.00 83 999.1
20260905170021 55 315 0.0 1.0 0.00 0.00 0.00 83 998.9
20260905164519 56 320 0.0 4.0 0.00 0.00 0.00 82 998.6
20260905163017 56 321 0.0 2.0 0.00 0.00 0.00 81 998.4
20260905161516 57 310 0.0 3.0 0.00 0.00 0.00 81 998.4
20260905160021 57 327 0.0 4.0 0.00 0.00 0.00 80 998.1
20260905154513 58 329 0.0 1.0 0.00 0.00 0.00 79 997.9
20260905153013 58 329 0.0 1.0 0.00 0.00 0.00 77 997.8
20260905151512 59 322 0.0 2.0 0.00 0.00 0.00 77 997.8
20260905150011 60 315 0.0 4.0 0.00 0.00 0.00 73 997.7
20260905144508 60 338 0.0 2.0 0.00 0.00 0.00 71 997.4
20260905143008 61 317 0.0 1.0 0.00 0.00 0.00 69 997.3
20260905141507 61 322 0.0 2.0 0.00 0.00 0.00 69 997.3
20260905140005 62 297 0.0 2.0 0.00 0.00 0.00 69 997.0
20260905134504 61 321 0.0 1.0 0.00 0.00 0.00 69 997.0
20260905133007 61 316 0.0 2.0 0.00 0.00 0.00 67 996.9
20260905131503 61 319 0.0 1.0 0.00 0.00 0.00 68 996.8
20260905130001 62 336 0.0 8.0 0.00 0.00 0.00 66 996.7
20260905124600 62 322 2.0 9.0 0.00 0.01 0.00 65 996.6
20260905123102 61 321 2.0 5.0 0.00 0.01 0.00 66 996.6
20260905121603 63 338 1.0 9.0 0.00 0.01 0.00 60 996.5
20260905120057 66 248 1.0 5.0 0.00 0.01 0.00 53 996.3
20260905114554 64 324 0.0 4.0 0.00 0.01 0.00 56 996.2
20260905113053 63 319 0.0 4.0 0.00 0.01 0.00 61 996.2
20260905111640 60 311 0.0 3.0 0.00 0.01 0.00 67 996.2
20260905110050 64 310 0.0 3.0 0.00 0.01 0.00 62 996.0
20260905104546 62 311 0.0 4.0 0.00 0.01 0.00 64 995.9
20260905103046 64 323 0.0 2.0 0.00 0.01 0.00 65 995.8
20260905101550 62 319 0.0 1.0 0.00 0.01 0.00 66 995.8
20260905100047 61 311 0.0 6.0 0.00 0.01 0.00 69 995.7
20260905094536 60 322 0.0 2.0 0.00 0.01 0.00 68 995.6
20260905093033 61 316 1.0 5.0 0.00 0.01 0.00 69 995.6
20260905091529 60 306 0.0 3.0 0.00 0.01 0.00 73 995.5
20260905090026 58 323 0.0 3.0 0.00 0.01 0.00 73 995.5
20260905084521 57 319 0.0 3.0 0.00 0.01 0.00 81 995.4
20260905083018 54 319 0.0 2.0 0.00 0.01 0.00 91 995.3
20260905081515 53 321 0.0 2.0 0.00 0.01 0.00 93 995.4
20260905080012 51 317 0.0 2.0 0.00 0.01 0.00 93 995.3
20260905074509 50 314 0.0 2.0 0.00 0.01 0.00 94 995.3
20260905073006 49 304 0.0 1.0 0.00 0.01 0.00 94 995.2
20260905071503 48 13 0.0 2.0 0.00 0.01 0.00 94 995.1
20260905070101 47 106 0.0 1.0 0.00 0.01 0.00 94 995.0
20260905064601 46 107 0.0 1.0 0.00 0.01 0.00 94 994.9
20260905063055 45 110 0.0 1.0 0.00 0.01 0.00 93 994.9
20260905061558 43 110 0.0 1.0 0.00 0.01 0.00 93 994.8